Wind_Speed
10 10 8 7 7 5 4 3 2 2 2 2 3 3 4 4 4 4 4 3 3 4 4 5 5 6 6 7 8 8 9 9 8 9 9 9 10 10 10 10 9 9
11 11 9 8 9 7 5 5 3 2 2 2 2 2 3 3 3 4 4 4 3 3 3 3 4 5 5 6 8 8 9 9 9 10 10 9 10 10 11 11 10 9
12 11 9 10 10 9 7 7 5 4 3 4 3 3 2 2 2 2 3 3 3 2 2 2 3 4 4 5 7 8 9 10 10 11 11 11 12 11 12 12 11 10
14 12 11 11 11 10 10 9 6 5 6 5 5 4 3 2 2 2 2 2 2 1 1 1 1 2 3 4 5 6 8 9 10 11 11 11 12 12 12 12 11 10
15 14 12 12 12 12 13 11 7 8 9 7 6 5 4 3 3 2 2 2 2 2 1 1 0 0 1 2 3 4 5 7 8 9 9 10 11 11 11 11 10 10
18 18 16 15 15 15 16 14 10 11 12 9 8 7 5 4 3 2 2 2 2 2 2 2 1 1 1 0 0 1 2 3 5 6 7 7 8 8 9 9 8 8
21 21 19 19 19 17 18 16 14 14 14 10 9 8 5 4 3 2 2 2 2 2 2 2 2 2 2 2 1 1 0 0 1 2 3 3 3 4 5 6 6 5
22 21 20 21 22 20 19 16 15 16 15 12 11 9 7 5 4 4 4 4 4 4 4 3 3 3 3 3 3 3 2 2 2 2 1 1 0 0 1 2 2 2
23 22 22 24 24 22 20 17 14 15 15 13 12 11 9 8 7 6 7 7 7 7 6 5 5 5 5 5 5 4 3 3 3 3 3 3 2 2 2 2 2 1
25 22 23 26 24 22 21 18 16 16 15 14 14 13 11 11 11 10 10 10 10 9 8 7 7 7 6 6 6 6 4 3 3 3 3 4 4 4 4 4 4 4
25 22 23 25 23 21 22 22 20 18 16 15 15 14 13 14 14 13 13 13 13 13 12 11 10 10 9 8 9 10 8 6 5 5 4 5 5 4 4 5 5 5
23 23 23 24 23 21 23 24 22 20 19 19 17 16 15 16 16 15 14 14 15 16 17 16 14 13 13 13 13 14 13 11 8 8 8 9 9 7 5 5 6 6
19 21 23 22 21 20 21 21 20 20 22 23 22 20 18 18 19 18 17 16 18 21 20 18 17 16 15 16 15 14 15 14 12 12 12 14 14 13 10 8 8 9
16 19 21 19 18 19 20 20 20 21 22 23 24 24 23 23 22 21 20 19 21 23 21 19 20 20 18 17 17 15 15 16 15 15 16 16 17 16 14 12 12 12
13 16 19 19 20 20 20 20 21 21 20 21 22 23 24 23 21 21 21 21 21 22 20 19 21 21 18 17 17 16 15 15 15 18 19 18 18 17 16 16 16 15
11 12 15 17 19 21 22 22 22 21 20 20 20 21 22 21 19 19 22 23 22 21 20 21 22 21 19 18 18 16 16 17 19 21 20 18 17 17 17 16 17 17
9 10 11 12 14 18 20 21 21 21 20 19 19 20 21 21 20 20 20 18 16 15 15 17 17 16 15 15 15 15 16 18 19 18 17 17 17 18 18 17 17 17
8 9 10 10 11 14 16 19 20 20 19 18 19 19 18 16 15 12 10 8 6 5 7 8 8 8 9 9 9 10 12 14 14 14 14 15 16 16 17 17 16 17
8 9 10 10 10 11 13 15 16 16 14 13 12 11 9 8 7 6 5 5 4 4 5 5 6 7 7 8 8 9 10 12 12 13 13 13 13 14 14 15 15 16
7 7 8 9 10 10 10 11 11 11 10 9 8 8 7 7 6 6 6 6 6 6 7 7 8 9 9 10 11 11 10 10 10 11 11 11 11 12 12 13 14 15
6 6 7 8 9 9 9 9 8 7 7 6 6 6 6 6 6 6 7 7 8 9 9 10 10 11 12 12 12 11 11 10 9 9 10 10 10 11 11 12 13 14
4 5 6 6 7 8 8 8 7 6 6 6 6 7 7 8 7 7 7 7 8 8 9 10 10 11 12 12 12 12 12 12 11 11 10 11 11 11 12 12 13 13
5 5 5 5 5 6 7 8 7 7 7 7 8 8 8 7 7 6 6 6 6 6 7 8 9 10 11 12 13 13 12 12 12 12 11 11 11 12 13 14 13 12
7 7 6 6 6 7 7 8 8 8 7 7 7 7 6 6 6 5 5 6 6 7 8 9 10 11 12 13 14 14 14 13 13 12 11 11 12 13 14 14 14 12
6 8 8 8 8 8 9 9 9 8 8 8 8 7 6 7 7 7 7 7 8 9 10 10 11 12 13 14 15 15 16 15 14 13 12 12 12 13 14 15 15 13
12 12 12 13 13 12 11 11 12 11 10 10 9 9 8 8 8 8 8 8 9 10 11 12 13 13 14 14 14 14 14 13 12 12 12 12 13 13 14 14 14 12
Wind_Direction
222 234 245 226 211 218 213 203 211 180 122 104 110 110 119 127 132 134 126 113 107 99 88 74 68 67 67 74 76 77 79 80 82 83 81 83 86 87 88 88 86 84
219 230 235 218 205 204 201 193 191 187 162 152 153 139 129 131 140 148 143 139 138 126 105 88 81 77 72 75 76 77 81 82 83 85 83 83 84 86 88 87 85 85
219 223 224 216 203 196 195 185 180 200 206 190 184 174 155 145 150 153 151 149 145 135 112 89 82 85 80 79 80 81 86 88 86 86 87 88 86 85 87 86 85 86
218 218 221 215 202 197 198 190 187 210 220 209 197 190 178 169 163 154 148 149 154 162 153 91 73 77 75 74 79 83 90 94 93 91 91 93 93 91 91 90 89 90
222 222 223 210 199 201 203 203 214 221 218 216 205 194 187 184 180 174 168 155 158 173 185 198 208 93 83 67 71 76 84 94 98 100 100 99 102 102 100 98 97 98
224 222 219 208 204 207 205 211 230 224 213 216 210 196 192 192 191 201 207 201 185 185 190 205 228 247 242 257 100 85 84 95 100 105 107 105 107 108 107 106 103 101
224 221 215 209 211 214 210 214 227 221 209 210 211 203 202 200 204 234 245 252 246 239 241 236 244 260 267 273 261 251 267 152 87 100 110 108 108 109 111 113 108 103
224 226 221 215 216 218 216 213 217 215 208 208 213 213 217 224 236 252 256 264 267 273 282 284 287 284 281 280 273 270 273 275 291 295 319 43 37 26 76 104 112 118
228 236 228 220 220 222 219 211 208 210 209 211 215 218 227 236 242 254 260 265 268 270 272 274 280 284 286 288 281 276 273 273 284 289 290 290 282 284 296 307 319 311
234 240 227 219 222 224 221 217 214 213 213 217 218 220 231 241 248 257 264 268 271 271 272 268 266 268 273 279 281 284 285 283 283 281 279 278 273 276 279 281 290 294
240 238 226 220 222 223 222 224 226 223 219 221 224 227 236 245 250 254 260 268 269 269 273 275 273 269 265 266 269 274 280 289 293 289 280 273 266 267 281 288 290 288
238 233 227 223 223 223 223 226 231 229 224 223 226 231 239 246 246 244 250 260 263 266 270 270 269 267 267 270 271 270 271 275 284 287 283 279 276 272 277 291 298 296
232 229 226 224 224 223 221 224 229 229 230 232 232 233 240 247 249 247 251 259 265 269 269 266 266 266 264 267 269 267 268 271 278 282 281 283 286 286 286 288 291 288
227 226 226 225 223 221 222 226 229 232 236 239 238 238 241 246 250 253 256 263 270 269 262 258 265 267 262 262 262 260 264 270 276 279 278 279 280 281 279 275 274 275
228 228 230 231 232 232 233 235 237 238 237 236 237 241 247 252 255 255 258 266 273 271 261 256 262 265 262 261 261 259 260 265 272 277 277 275 272 271 269 265 264 267
232 231 233 236 238 240 240 241 244 244 240 240 242 246 254 262 265 262 264 270 274 274 269 261 259 262 262 261 260 260 262 266 271 274 275 270 265 264 263 261 261 263
228 232 235 236 235 235 237 240 243 244 245 250 252 253 257 264 266 266 267 268 268 267 264 258 257 261 263 263 264 265 267 268 268 269 270 267 264 262 262 260 258 258
223 227 229 227 224 225 230 233 237 243 248 251 250 251 254 256 258 257 253 249 251 254 251 250 254 261 266 271 272 269 268 269 270 270 271 272 271 269 268 267 264 261
224 223 220 218 215 217 222 225 229 233 234 230 227 227 228 226 223 219 216 222 235 244 251 256 260 264 268 272 272 270 271 273 274 273 273 274 275 275 274 272 270 268
210 210 204 203 203 201 203 205 208 210 206 202 201 200 203 207 211 220 230 241 249 255 261 263 263 265 266 268 270 272 275 277 277 277 276 275 275 276 277 276 275 273
202 197 192 193 194 193 194 194 197 203 204 206 208 208 213 217 224 233 239 246 254 258 258 258 258 259 260 263 266 269 272 276 278 280 282 282 283 286 287 288 285 280
219 211 205 203 200 201 203 201 201 207 213 221 226 229 232 232 232 237 241 246 254 257 259 260 259 258 259 261 264 266 268 270 271 274 280 284 289 295 300 302 299 291
230 232 228 225 216 209 207 204 204 209 219 233 240 240 238 234 232 236 244 252 259 264 268 271 271 272 272 271 271 272 271 271 271 271 275 281 288 296 302 306 306 301
219 230 231 233 230 222 217 215 215 221 228 232 232 231 230 231 236 245 257 264 267 268 270 273 277 280 278 276 276 276 275 276 276 275 275 280 288 294 301 307 309 307
235 239 235 240 242 235 228 222 219 223 227 226 227 231 237 243 253 267 275 275 273 274 279 282 286 289 287 283 280 278 278 278 277 277 279 282 287 293 299 305 309 310
245 243 238 241 245 242 235 228 226 228 232 233 236 239 244 254 267 277 282 282 283 286 292 295 297 300 301 297 292 288 285 280 277 278 281 283 288 292 298 304 308 311
Height
1531 1533 1535 1536 1538 1539 1540 1540 1541 1541 1541 1541 1542 1542 1543 1543 1544 1545 1545 1546 1546 1546 1546 1546 1546 1546 1546 1545 1545 1545 1545 1545 1545 1544 1544 1544 1545 1545 1545 1545 1545 1546
1530 1532 1534 1536 1537 1539 1540 1541 1541 1542 1542 1542 1543 1543 1544 1544 1545 1545 1546 1546 1547 1547 1547 1547 1547 1547 1547 1547 1546 1546 1546 1546 1546 1546 1546 1546 1546 1546 1546 1546 1547 1547
1530 1532 1534 1536 1537 1539 1540 1541 1542 1543 1543 1544 1544 1544 1544 1545 1545 1546 1547 1547 1548 1548 1548 1548 1548 1548 1548 1548 1548 1548 1547 1547 1547 1547 1547 1547 1547 1547 1547 1547 1547 1548
1530 1532 1533 1536 1537 1539 1541 1541 1542 1544 1545 1545 1544 1545 1545 1545 1546 1547 1547 1548 1548 1549 1549 1550 1550 1550 1550 1550 1549 1549 1549 1548 1548 1548 1548 1548 1548 1548 1548 1548 1548 1548
1529 1531 1533 1535 1537 1538 1540 1541 1542 1544 1545 1545 1545 1545 1546 1546 1547 1547 1548 1549 1549 1550 1550 1550 1551 1551 1551 1551 1551 1551 1550 1550 1550 1549 1549 1550 1549 1549 1549 1549 1550 1550
1527 1529 1531 1533 1535 1537 1538 1540 1541 1543 1544 1545 1545 1546 1546 1547 1547 1548 1548 1549 1550 1550 1551 1551 1552 1552 1552 1552 1552 1552 1551 1551 1551 1551 1551 1551 1550 1550 1550 1550 1551 1551
1524 1526 1528 1531 1533 1535 1536 1538 1540 1542 1543 1544 1545 1546 1547 1547 1548 1548 1549 1550 1550 1551 1552 1552 1553 1553 1553 1553 1553 1553 1552 1552 1552 1552 1552 1552 1552 1551 1551 1551 1551 1551
1523 1525 1527 1529 1531 1533 1535 1537 1539 1541 1541 1543 1544 1545 1546 1547 1548 1548 1549 1550 1550 1551 1552 1552 1553 1554 1554 1554 1554 1554 1553 1553 1553 1553 1552 1553 1552 1552 1552 1552 1552 1552
1523 1524 1526 1528 1530 1532 1534 1536 1539 1540 1540 1542 1543 1544 1545 1546 1547 1548 1548 1549 1550 1551 1551 1552 1553 1553 1553 1554 1555 1554 1554 1554 1553 1553 1553 1553 1553 1553 1553 1553 1553 1553
1522 1523 1524 1526 1529 1531 1534 1536 1537 1538 1539 1541 1542 1543 1544 1545 1546 1547 1548 1548 1549 1550 1551 1552 1552 1552 1552 1553 1554 1554 1555 1554 1554 1553 1553 1553 1553 1553 1553 1553 1553 1553
1520 1522 1523 1525 1528 1531 1533 1534 1535 1537 1538 1539 1540 1542 1543 1544 1545 1546 1546 1547 1548 1549 1551 1551 1551 1551 1551 1551 1552 1553 1553 1554 1554 1553 1553 1552 1552 1552 1553 1553 1553 1553
1519 1521 1523 1525 1527 1529 1531 1532 1534 1535 1536 1537 1538 1540 1541 1542 1543 1543 1544 1545 1547 1548 1549 1550 1550 1550 1550 1551 1551 1552 1552 1552 1553 1552 1552 1551 1551 1552 1553 1552 1552 1553
1518 1520 1522 1524 1526 1527 1529 1531 1532 1533 1534 1535 1537 1538 1539 1540 1540 1542 1543 1544 1545 1546 1547 1548 1548 1549 1549 1549 1550 1551 1550 1550 1550 1551 1551 1550 1550 1551 1551 1551 1551 1552
1517 1519 1521 1523 1525 1527 1528 1530 1531 1531 1532 1534 1536 1536 1537 1538 1539 1541 1542 1543 1544 1544 1545 1546 1546 1546 1547 1547 1547 1548 1548 1548 1548 1549 1549 1549 1548 1549 1549 1549 1550 1550
1517 1519 1520 1522 1524 1525 1526 1528 1529 1530 1531 1533 1534 1535 1535 1536 1538 1540 1541 1541 1541 1541 1542 1543 1543 1544 1544 1545 1545 1545 1545 1546 1546 1547 1547 1547 1547 1547 1547 1547 1548 1548
1516 1518 1520 1521 1522 1523 1524 1526 1528 1529 1530 1531 1532 1533 1533 1534 1537 1539 1539 1539 1539 1538 1539 1539 1540 1541 1542 1542 1542 1542 1542 1543 1543 1544 1544 1544 1545 1545 1545 1546 1546 1546
1516 1517 1519 1520 1521 1522 1522 1524 1525 1526 1527 1529 1530 1530 1531 1532 1534 1535 1536 1536 1536 1536 1536 1537 1538 1539 1539 1540 1540 1539 1540 1540 1541 1541 1542 1542 1543 1543 1543 1543 1544 1544
1515 1516 1518 1518 1519 1520 1521 1522 1523 1524 1525 1527 1528 1528 1529 1530 1531 1532 1533 1534 1534 1534 1535 1536 1537 1537 1537 1537 1538 1538 1538 1539 1539 1539 1540 1540 1541 1541 1541 1541 1541 1542
1514 1515 1516 1517 1518 1519 1520 1521 1521 1523 1524 1525 1526 1527 1528 1529 1530 1531 1532 1533 1533 1534 1534 1535 1535 1535 1536 1536 1537 1537 1537 1537 1538 1538 1538 1539 1539 1539 1539 1539 1539 1539
1514 1515 1516 1516 1517 1518 1519 1520 1521 1522 1523 1524 1525 1526 1527 1528 1529 1530 1531 1532 1532 1533 1533 1533 1534 1534 1535 1535 1535 1536 1536 1536 1536 1536 1537 1537 1537 1537 1537 1537 1537 1537
1515 1516 1516 1517 1517 1518 1519 1519 1520 1521 1522 1523 1524 1525 1526 1527 1528 1529 1530 1530 1531 1531 1532 1532 1533 1533 1534 1534 1534 1534 1534 1535 1535 1535 1535 1535 1535 1535 1535 1535 1535 1534
1516 1516 1516 1517 1518 1518 1519 1519 1520 1521 1521 1522 1523 1524 1525 1526 1527 1528 1528 1529 1530 1531 1531 1531 1532 1532 1533 1533 1533 1533 1533 1533 1533 1533 1534 1534 1533 1533 1533 1533 1533 1532
1516 1516 1516 1517 1518 1518 1519 1519 1520 1520 1521 1522 1523 1524 1524 1525 1526 1527 1527 1528 1529 1530 1530 1531 1531 1531 1532 1531 1532 1532 1532 1532 1532 1532 1532 1532 1532 1531 1531 1531 1530 1530
1515 1516 1516 1517 1518 1519 1519 1520 1520 1520 1521 1521 1522 1523 1524 1524 1525 1526 1527 1528 1528 1529 1529 1530 1530 1530 1530 1530 1530 1530 1530 1530 1529 1530 1530 1530 1530 1529 1529 1529 1528 1528
1514 1515 1516 1517 1518 1519 1519 1519 1519 1520 1520 1521 1521 1522 1523 1524 1524 1525 1526 1526 1527 1527 1528 1528 1528 1528 1528 1528 1528 1528 1528 1528 1527 1528 1528 1528 1528 1527 1527 1527 1527 1526
1514 1514 1515 1516 1517 1518 1518 1518 1519 1519 1519 1519 1520 1521 1522 1523 1523 1524 1525 1525 1525 1525 1526 1526 1526 1526 1526 1526 1526 1525 1526 1525 1525 1526 1526 1526 1526 1526 1525 1525 1525 1525